Location: Newark
(40.4667°N, 5.6000°W)
Time: 23:23:15
(UTC+00:00)

Explorer 11/Cluster Stage 4 - All Passes

Search period start: 17 November 2019 00:00
Search period end: 27 November 2019 00:00
Orbit: 467 x 1259 km, 28.8° (Epoch: 17 November)

Date Brightness Start Highest point End Pass type
(mag) Time Alt. Az. Time Alt. Az. Time Alt. Az.
17 Nov - 01:46:40 10° WSW 01:52:32 22° SSW 01:58:29 10° SSE night (unlit)
17 Nov - 20:12:32 10° SSW 20:16:40 19° SSE 20:21:20 10° ESE visible
17 Nov - 21:58:51 10° SW 22:04:40 31° S 22:11:21 10° ESE night (unlit)
17 Nov - 23:46:46 10° WSW 23:53:08 32° S 00:00:06 10° SE night (unlit)
18 Nov - 01:36:07 10° WSW 01:41:34 20° SSW 01:47:10 10° SSE night (unlit)
18 Nov - 20:01:42 10° SSW 20:05:47 20° SSE 20:10:29 10° ESE visible
18 Nov - 21:48:11 10° SW 21:53:47 31° S 22:00:19 10° ESE night (unlit)
18 Nov - 23:36:07 10° WSW 23:42:13 30° S 23:48:58 10° SE night (unlit)
19 Nov - 01:25:40 10° WSW 01:30:36 18° SSW 01:35:42 10° SSE night (unlit)
19 Nov - 19:50:55 10° SSW 19:54:57 20° SSE 19:59:36 10° ESE visible
19 Nov - 21:37:32 10° SW 21:42:56 30° S 21:49:16 10° ESE night (unlit)
19 Nov - 23:25:32 10° WSW 23:31:19 27° S 23:37:46 10° SE night (unlit)
20 Nov - 01:15:22 10° WSW 01:19:39 16° SSW 01:24:06 10° S night (unlit)
20 Nov - 19:40:13 10° SSW 19:44:09 21° SSE 19:48:41 10° ESE visible
20 Nov - 21:26:56 10° SW 21:32:06 29° S 21:38:12 10° ESE visible
20 Nov - 23:15:00 10° WSW 23:20:25 25° SSW 23:26:31 10° SE night (unlit)
21 Nov - 01:05:19 10° SW 01:08:42 13° SSW 01:12:14 10° S night (unlit)
21 Nov - 19:29:33 10° SSW 19:33:21 21° SSE 19:37:46 10° ESE visible
21 Nov - 21:16:23 10° WSW 21:21:17 28° S 21:27:06 10° ESE visible
21 Nov - 23:04:32 10° WSW 23:09:33 23° SSW 23:15:12 10° SE night (unlit)
22 Nov - 00:55:47 10° SW 00:57:47 11° SSW 00:59:49 10° S night (unlit)
22 Nov - 19:18:55 10° SW 19:22:35 21° SSE 19:26:50 10° ESE visible
22 Nov - 21:05:52 10° WSW 21:10:30 26° S 21:15:58 10° SE visible
22 Nov - 22:54:09 10° WSW 22:58:42 20° SSW 23:03:48 10° SSE night (unlit)
23 Nov - 19:08:20 10° SW 19:11:50 20° SSE 19:15:55 10° ESE visible
23 Nov - 20:55:24 10° SW 20:59:43 24° S 21:04:51 10° SE visible
23 Nov - 22:43:53 10° SW 22:47:52 17° SSW 22:52:18 10° SSE night (unlit)
24 Nov - 18:57:46 10° SW 19:01:07 20° S 19:04:58 10° SE visible
24 Nov - 20:44:58 10° SW 20:48:58 22° S 20:53:40 10° SE visible
24 Nov - 22:33:48 10° SW 22:37:03 15° SSW 22:40:38 10° SSE night (unlit)
25 Nov - 18:47:15 10° SW 18:50:25 19° S 18:54:02 10° SE visible
25 Nov - 20:34:36 10° SW 20:38:15 20° S 20:42:27 10° SE visible
25 Nov - 22:24:02 10° SW 22:26:16 12° SSW 22:28:39 10° S night (unlit)
26 Nov - 16:51:39 10° S 16:52:15 10° SSE 16:52:52 10° SSE daylight
26 Nov - 18:36:46 10° SW 18:39:44 19° S 18:43:06 10° SE visible
26 Nov - 20:24:19 10° SW 20:27:32 18° S 20:31:12 10° SSE visible
